QPF
0.00 0.00 0.00 0.00 0.00 0.00 0.00 0.00 0.00 0.00 0.00 0.00 0.00 0.00 0.00 0.00 0.00 0.02 0.00 0.00 0.00 0.00 0.00 0.00 0.00 0.00 0.00 0.00 0.01 0.02 0.01 0.01 0.03 0.05 0.05 0.08 0.05 0.04 0.06 0.11 0.27 0.25 0.06 0.02 0.00 0.00 0.00 0.00 0.00
0.00 0.00 0.00 0.00 0.00 0.00 0.00 0.00 0.00 0.00 0.00 0.00 0.00 0.00 0.00 0.00 0.00 0.00 0.00 0.00 0.00 0.00 0.00 0.00 0.00 0.00 0.00 0.01 0.02 0.03 0.02 0.00 0.01 0.03 0.03 0.04 0.02 0.03 0.07 0.15 0.17 0.08 0.00 0.00 0.00 0.00 0.00 0.00 0.00
0.00 0.00 0.00 0.00 0.00 0.00 0.00 0.00 0.00 0.00 0.00 0.00 0.00 0.00 0.00 0.00 0.00 0.00 0.00 0.00 0.00 0.00 0.00 0.00 0.00 0.00 0.00 0.01 0.03 0.03 0.00 0.00 0.00 0.04 0.06 0.02 0.01 0.00 0.03 0.03 0.01 0.00 0.00 0.00 0.00 0.00 0.00 0.00 0.00
0.00 0.00 0.00 0.00 0.00 0.00 0.00 0.00 0.00 0.00 0.00 0.00 0.00 0.00 0.00 0.00 0.00 0.00 0.00 0.00 0.00 0.00 0.00 0.00 0.00 0.00 0.00 0.01 0.01 0.02 0.01 0.00 0.00 0.01 0.02 0.00 0.00 0.00 0.00 0.00 0.00 0.00 0.00 0.00 0.00 0.00 0.00 0.00 0.00
0.00 0.00 0.00 0.00 0.00 0.00 0.00 0.00 0.00 0.00 0.00 0.00 0.00 0.00 0.00 0.00 0.00 0.00 0.00 0.00 0.00 0.00 0.00 0.00 0.00 0.00 0.00 0.00 0.00 0.00 0.01 0.00 0.00 0.01 0.00 0.00 0.00 0.00 0.00 0.00 0.00 0.00 0.00 0.00 0.00 0.00 0.00 0.00 0.00
0.00 0.00 0.00 0.00 0.00 0.00 0.00 0.00 0.00 0.00 0.00 0.00 0.00 0.00 0.00 0.00 0.00 0.00 0.00 0.00 0.00 0.00 0.00 0.00 0.00 0.00 0.00 0.00 0.00 0.00 0.00 0.00 0.00 0.00 0.00 0.00 0.00 0.00 0.00 0.00 0.00 0.00 0.00 0.00 0.00 0.00 0.00 0.00 0.00
0.00 0.00 0.00 0.00 0.00 0.00 0.00 0.00 0.00 0.00 0.00 0.00 0.00 0.00 0.00 0.00 0.00 0.00 0.00 0.00 0.00 0.00 0.00 0.00 0.00 0.00 0.00 0.00 0.00 0.00 0.00 0.00 0.00 0.00 0.00 0.00 0.00 0.00 0.00 0.00 0.00 0.00 0.00 0.00 0.00 0.00 0.00 0.00 0.00
0.00 0.00 0.00 0.00 0.00 0.00 0.00 0.00 0.00 0.00 0.00 0.00 0.00 0.00 0.00 0.00 0.00 0.00 0.00 0.00 0.00 0.00 0.00 0.00 0.00 0.00 0.00 0.00 0.00 0.00 0.00 0.00 0.00 0.00 0.00 0.00 0.00 0.00 0.00 0.00 0.00 0.00 0.00 0.00 0.00 0.00 0.00 0.00 0.00
0.00 0.00 0.00 0.00 0.00 0.00 0.00 0.00 0.00 0.00 0.00 0.00 0.00 0.00 0.00 0.00 0.00 0.00 0.00 0.00 0.00 0.00 0.00 0.00 0.00 0.00 0.00 0.00 0.00 0.00 0.00 0.00 0.00 0.00 0.00 0.00 0.00 0.00 0.00 0.00 0.00 0.00 0.00 0.00 0.00 0.00 0.00 0.00 0.00
0.00 0.00 0.00 0.00 0.00 0.00 0.00 0.00 0.00 0.00 0.00 0.00 0.00 0.00 0.00 0.00 0.00 0.00 0.00 0.00 0.00 0.00 0.00 0.00 0.00 0.00 0.00 0.00 0.00 0.00 0.00 0.00 0.00 0.00 0.00 0.00 0.00 0.00 0.00 0.00 0.00 0.00 0.00 0.00 0.00 0.00 0.00 0.00 0.00
0.00 0.00 0.00 0.00 0.00 0.00 0.00 0.00 0.00 0.00 0.00 0.00 0.00 0.00 0.00 0.00 0.00 0.00 0.00 0.00 0.00 0.00 0.00 0.00 0.00 0.00 0.00 0.00 0.00 0.00 0.00 0.00 0.00 0.00 0.00 0.00 0.00 0.00 0.00 0.00 0.00 0.00 0.00 0.00 0.00 0.00 0.00 0.00 0.00
0.00 0.00 0.00 0.00 0.00 0.00 0.00 0.00 0.00 0.00 0.00 0.00 0.00 0.00 0.00 0.00 0.00 0.00 0.00 0.00 0.00 0.00 0.00 0.00 0.00 0.00 0.00 0.00 0.00 0.00 0.00 0.00 0.00 0.00 0.00 0.00 0.00 0.00 0.00 0.00 0.00 0.00 0.00 0.00 0.00 0.00 0.00 0.00 0.00
0.00 0.00 0.00 0.00 0.00 0.00 0.00 0.00 0.00 0.00 0.00 0.00 0.00 0.00 0.00 0.00 0.00 0.00 0.00 0.00 0.00 0.00 0.00 0.00 0.00 0.00 0.00 0.00 0.00 0.00 0.00 0.00 0.00 0.00 0.00 0.00 0.00 0.00 0.00 0.00 0.00 0.00 0.00 0.00 0.00 0.00 0.00 0.00 0.00
0.00 0.00 0.00 0.00 0.00 0.00 0.00 0.00 0.00 0.00 0.00 0.00 0.00 0.00 0.00 0.00 0.00 0.00 0.00 0.00 0.00 0.00 0.00 0.00 0.00 0.00 0.00 0.00 0.00 0.00 0.00 0.00 0.00 0.00 0.00 0.00 0.00 0.00 0.00 0.00 0.00 0.00 0.00 0.00 0.00 0.00 0.00 0.00 0.00
0.00 0.00 0.00 0.00 0.00 0.00 0.00 0.00 0.00 0.00 0.00 0.00 0.00 0.00 0.00 0.00 0.00 0.00 0.00 0.00 0.00 0.00 0.00 0.00 0.00 0.00 0.00 0.00 0.00 0.00 0.00 0.00 0.00 0.00 0.00 0.00 0.00 0.00 0.00 0.00 0.00 0.00 0.00 0.00 0.00 0.00 0.00 0.00 0.00
0.00 0.00 0.00 0.00 0.00 0.00 0.00 0.00 0.00 0.00 0.00 0.00 0.00 0.00 0.00 0.00 0.00 0.00 0.00 0.00 0.00 0.00 0.00 0.00 0.00 0.00 0.00 0.00 0.00 0.00 0.00 0.00 0.00 0.00 0.00 0.00 0.00 0.00 0.00 0.00 0.00 0.00 0.00 0.00 0.00 0.00 0.00 0.00 0.00
0.00 0.00 0.00 0.00 0.00 0.00 0.00 0.00 0.00 0.00 0.00 0.00 0.00 0.00 0.00 0.00 0.00 0.00 0.00 0.00 0.00 0.00 0.00 0.00 0.00 0.00 0.00 0.00 0.00 0.00 0.00 0.00 0.00 0.00 0.00 0.00 0.00 0.00 0.00 0.00 0.00 0.00 0.00 0.00 0.00 0.00 0.00 0.00 0.00
0.00 0.00 0.00 0.00 0.00 0.00 0.00 0.00 0.00 0.00 0.00 0.00 0.00 0.00 0.00 0.00 0.00 0.00 0.00 0.00 0.00 0.00 0.00 0.00 0.00 0.00 0.00 0.00 0.00 0.00 0.00 0.00 0.00 0.00 0.00 0.00 0.00 0.00 0.00 0.00 0.00 0.00 0.00 0.00 0.00 0.00 0.00 0.00 0.00
0.00 0.00 0.00 0.00 0.00 0.00 0.00 0.00 0.00 0.00 0.00 0.00 0.00 0.00 0.00 0.00 0.00 0.00 0.00 0.00 0.00 0.00 0.00 0.00 0.00 0.00 0.00 0.00 0.00 0.00 0.00 0.00 0.00 0.00 0.00 0.00 0.00 0.00 0.00 0.00 0.00 0.00 0.00 0.00 0.00 0.00 0.00 0.00 0.00
0.00 0.00 0.00 0.00 0.00 0.00 0.00 0.00 0.00 0.00 0.00 0.00 0.00 0.00 0.00 0.00 0.00 0.00 0.00 0.00 0.01 0.00 0.00 0.00 0.00 0.00 0.00 0.00 0.00 0.00 0.00 0.00 0.00 0.00 0.00 0.00 0.00 0.00 0.00 0.00 0.00 0.00 0.00 0.00 0.00 0.00 0.00 0.00 0.00
0.00 0.00 0.00 0.00 0.00 0.00 0.00 0.00 0.00 0.00 0.00 0.00 0.00 0.00 0.00 0.00 0.00 0.00 0.00 0.00 0.01 0.00 0.00 0.00 0.00 0.00 0.00 0.00 0.00 0.00 0.00 0.00 0.00 0.00 0.00 0.00 0.00 0.00 0.00 0.00 0.00 0.00 0.00 0.00 0.00 0.00 0.00 0.00 0.00
0.00 0.00 0.00 0.00 0.00 0.00 0.00 0.00 0.00 0.00 0.00 0.00 0.00 0.00 0.00 0.00 0.00 0.00 0.00 0.00 0.00 0.00 0.00 0.00 0.00 0.00 0.00 0.00 0.00 0.00 0.00 0.00 0.00 0.00 0.00 0.00 0.00 0.00 0.00 0.00 0.00 0.00 0.00 0.00 0.00 0.00 0.00 0.00 0.00
0.00 0.00 0.00 0.00 0.00 0.00 0.00 0.00 0.00 0.00 0.00 0.00 0.00 0.00 0.00 0.00 0.00 0.00 0.00 0.00 0.00 0.00 0.00 0.00 0.00 0.00 0.00 0.00 0.00 0.00 0.00 0.00 0.00 0.00 0.00 0.00 0.00 0.00 0.00 0.00 0.00 0.00 0.00 0.00 0.00 0.00 0.00 0.00 0.00
0.00 0.00 0.00 0.00 0.00 0.00 0.00 0.00 0.00 0.00 0.00 0.00 0.00 0.00 0.00 0.00 0.00 0.00 0.00 0.00 0.00 0.00 0.00 0.00 0.00 0.00 0.00 0.00 0.00 0.00 0.00 0.00 0.00 0.00 0.00 0.00 0.00 0.00 0.00 0.00 0.00 0.00 0.00 0.00 0.00 0.00 0.00 0.00 0.00
0.00 0.00 0.00 0.00 0.00 0.00 0.00 0.00 0.00 0.00 0.00 0.00 0.00 0.00 0.00 0.00 0.00 0.00 0.01 0.01 0.04 0.01 0.00 0.01 0.01 0.00 0.00 0.00 0.00 0.00 0.00 0.01 0.00 0.00 0.00 0.01 0.03 0.02 0.00 0.00 0.00 0.00 0.00 0.00 0.00 0.00 0.00 0.00 0.00
0.00 0.00 0.00 0.00 0.00 0.00 0.00 0.00 0.00 0.00 0.00 0.00 0.00 0.00 0.00 0.00 0.00 0.00 0.02 0.01 0.04 0.06 0.03 0.04 0.16 0.06 0.00 0.02 0.01 0.01 0.00 0.02 0.02 0.02 0.02 0.03 0.06 0.08 0.04 0.01 0.00 0.00 0.00 0.00 0.00 0.00 0.00 0.00 0.00
0.00 0.00 0.00 0.00 0.00 0.00 0.00 0.00 0.00 0.00 0.00 0.00 0.00 0.00 0.00 0.00 0.01 0.02 0.04 0.03 0.01 0.05 0.08 0.08 0.18 0.15 0.04 0.05 0.07 0.07 0.02 0.07 0.13 0.12 0.11 0.10 0.07 0.04 0.01 0.01 0.00 0.00 0.00 0.00 0.00 0.00 0.00 0.00 0.00
0.00 0.00 0.00 0.00 0.00 0.00 0.00 0.00 0.00 0.00 0.00 0.00 0.00 0.00 0.00 0.00 0.00 0.00 0.02 0.06 0.06 0.04 0.03 0.04 0.15 0.16 0.05 0.07 0.14 0.10 0.07 0.05 0.05 0.06 0.07 0.05 0.03 0.02 0.01 0.01 0.00 0.00 0.00 0.00 0.00 0.00 0.00 0.00 0.00
0.00 0.00 0.00 0.00 0.00 0.00 0.00 0.00 0.00 0.00 0.00 0.00 0.00 0.00 0.00 0.00 0.00 0.00 0.00 0.00 0.01 0.01 0.02 0.01 0.02 0.08 0.05 0.01 0.05 0.08 0.07 0.06 0.07 0.10 0.13 0.06 0.02 0.04 0.06 0.04 0.01 0.00 0.00 0.00 0.00 0.00 0.00 0.00 0.00
0.00 0.00 0.00 0.00 0.00 0.00 0.00 0.00 0.00 0.00 0.00 0.00 0.00 0.00 0.00 0.00 0.00 0.00 0.00 0.00 0.00 0.02 0.04 0.03 0.01 0.01 0.00 0.00 0.02 0.03 0.02 0.02 0.05 0.08 0.08 0.02 0.03 0.01 0.02 0.03 0.02 0.01 0.00 0.00 0.00 0.00 0.00 0.00 0.00
MSLP
1009.18 1008.62 1007.67 1006.13 1004.69 1001.35 998.35 996.37 995.94 996.30 996.95 998.00 997.93 998.72 999.10 1000.53 1000.79 1002.80 1003.85 1004.68 1006.33 1008.28 1009.78 1010.63 1011.42 1012.04 1012.61 1013.03 1013.24 1013.28 1013.39 1013.45 1013.55 1013.79 1013.95 1014.19 1014.42 1014.61 1014.81 1015.09 1015.16 1015.17 1015.33 1015.60 1015.84 1016.02 1016.27 1016.48 1016.55
1007.28 1007.10 1006.55 1004.51 1002.22 999.04 997.00 995.57 995.85 996.12 997.64 998.65 999.35 999.94 1000.15 1001.92 1002.85 1003.82 1004.66 1005.60 1006.73 1008.39 1009.69 1010.58 1011.63 1012.17 1012.80 1013.25 1013.48 1013.53 1013.58 1013.76 1013.93 1014.17 1014.34 1014.53 1014.67 1014.86 1015.05 1015.27 1015.46 1015.56 1015.72 1016.01 1016.21 1016.37 1016.66 1016.76 1016.78
1007.83 1006.66 1005.23 1002.60 1000.55 998.25 996.89 997.65 995.86 997.00 998.55 998.96 999.73 1000.21 1001.17 1003.00 1003.78 1004.27 1005.37 1006.12 1007.02 1008.34 1009.21 1010.96 1011.81 1012.36 1012.96 1013.46 1013.74 1013.88 1013.93 1014.10 1014.25 1014.52 1014.71 1014.86 1015.01 1015.23 1015.37 1015.58 1015.84 1015.98 1016.16 1016.49 1016.58 1016.74 1016.85 1017.14 1017.02
1006.70 1005.78 1004.54 1001.70 999.08 997.61 996.53 997.28 997.29 997.74 998.74 999.28 999.70 1001.07 1003.38 1004.11 1004.09 1004.92 1005.92 1006.42 1007.29 1008.25 1009.10 1011.62 1012.03 1012.62 1013.11 1013.63 1013.94 1014.25 1014.34 1014.45 1014.61 1014.82 1015.00 1015.16 1015.41 1015.64 1015.81 1016.04 1016.26 1016.49 1016.67 1016.78 1016.88 1017.07 1017.21 1017.25 1017.23
1005.77 1004.10 1002.14 1000.10 998.66 997.51 997.19 997.44 997.85 997.85 998.62 999.21 999.93 1001.48 1003.47 1004.58 1005.05 1005.79 1006.26 1006.81 1007.56 1008.41 1010.22 1011.63 1012.26 1012.90 1013.34 1013.82 1014.17 1014.50 1014.75 1014.79 1014.99 1015.11 1015.30 1015.54 1015.82 1016.09 1016.26 1016.48 1016.70 1016.84 1016.99 1017.17 1017.32 1017.43 1017.47 1017.42 1017.42
1004.43 1003.27 1001.20 999.09 997.68 997.11 997.30 997.73 998.07 997.96 998.81 999.56 1000.39 1001.78 1004.12 1005.21 1005.45 1006.00 1006.55 1007.20 1008.04 1008.83 1010.32 1011.86 1012.59 1013.14 1013.57 1014.02 1014.41 1014.80 1015.06 1015.25 1015.40 1015.51 1015.71 1015.92 1016.27 1016.51 1016.73 1016.92 1017.14 1017.27 1017.37 1017.51 1017.60 1017.67 1017.71 1017.71 1017.67
1003.53 1001.85 1000.37 998.90 997.23 996.41 997.28 997.90 998.10 998.15 998.76 999.44 1000.39 1001.56 1004.68 1005.23 1005.68 1006.18 1006.82 1007.84 1008.51 1009.26 1010.38 1011.48 1012.34 1013.24 1013.81 1014.24 1014.68 1015.07 1015.32 1015.56 1015.71 1015.86 1016.07 1016.34 1016.68 1016.85 1017.02 1017.23 1017.44 1017.66 1017.78 1017.86 1017.90 1017.88 1017.88 1017.86 1017.77
1003.13 1001.97 999.86 998.66 997.29 996.87 997.27 998.45 998.63 998.37 998.64 1000.11 1000.85 1001.48 1003.96 1004.71 1005.69 1006.20 1007.37 1008.38 1008.90 1009.64 1010.67 1011.40 1012.20 1012.83 1013.46 1014.21 1014.81 1015.25 1015.53 1015.79 1015.95 1016.21 1016.38 1016.63 1016.91 1017.07 1017.24 1017.44 1017.65 1017.85 1017.92 1018.02 1018.10 1018.17 1018.15 1018.07 1017.98
1002.88 1001.28 999.31 998.26 997.30 997.26 997.40 998.48 999.00 999.02 999.26 1000.59 1001.47 1001.62 1002.83 1004.63 1005.67 1006.26 1007.33 1008.26 1009.59 1010.00 1010.64 1011.26 1011.95 1012.47 1013.15 1013.84 1014.79 1015.30 1015.73 1015.94 1016.15 1016.36 1016.58 1016.75 1016.64 1016.86 1017.30 1017.45 1017.89 1018.04 1018.15 1018.21 1018.25 1018.25 1018.13 1018.00 1017.96
1001.97 1000.65 999.01 998.21 997.20 997.20 997.27 998.24 998.87 999.87 999.65 1000.89 1001.69 1002.91 1003.89 1004.77 1005.58 1005.89 1006.80 1007.90 1009.39 1010.29 1010.36 1011.11 1011.79 1012.21 1012.84 1013.19 1014.41 1014.65 1015.17 1015.32 1015.36 1015.71 1016.17 1015.57 1016.18 1016.41 1016.59 1017.77 1018.21 1018.26 1018.24 1018.20 1018.13 1017.99 1017.77 1017.69 1016.61
1001.32 1000.04 999.11 998.29 997.46 997.91 997.68 998.36 999.14 999.73 999.44 1000.42 1001.80 1003.05 1004.37 1005.04 1005.51 1005.71 1006.50 1007.35 1008.46 1009.95 1010.72 1010.89 1011.66 1012.14 1012.18 1012.82 1013.40 1013.92 1014.24 1014.42 1014.96 1015.48 1015.26 1015.40 1015.80 1016.38 1016.72 1017.48 1017.70 1017.79 1018.02 1017.50 1017.70 1017.45 1017.22 1016.49 1016.19
1000.48 1000.04 999.57 998.17 997.79 998.45 998.37 998.00 998.67 999.57 999.42 999.90 1001.45 1002.72 1004.38 1004.87 1004.97 1005.29 1005.86 1006.77 1007.79 1009.44 1010.29 1010.89 1011.41 1012.05 1011.90 1012.43 1012.66 1013.13 1013.53 1014.17 1014.62 1014.97 1015.07 1015.62 1015.69 1016.08 1015.83 1016.08 1016.25 1016.47 1016.40 1016.23 1016.23 1016.72 1017.21 1017.64 1017.86
999.96 999.66 999.26 998.80 998.06 998.32 998.77 998.22 998.44 999.25 999.99 1000.38 1000.85 1002.30 1003.87 1004.66 1004.71 1005.23 1005.60 1006.35 1007.45 1008.77 1009.72 1010.49 1011.10 1011.88 1011.99 1012.23 1012.14 1012.68 1013.25 1013.77 1014.13 1014.92 1015.01 1015.11 1015.04 1015.41 1015.28 1015.54 1015.64 1015.46 1015.86 1016.06 1016.74 1017.49 1018.01 1018.33 1018.69
999.62 999.39 999.14 998.55 998.33 998.06 998.74 998.34 998.44 998.76 999.80 1000.31 1000.93 1002.44 1003.44 1004.13 1004.45 1005.29 1005.51 1005.97 1007.02 1008.30 1009.44 1010.14 1010.93 1011.76 1011.97 1012.21 1012.59 1012.78 1013.20 1013.35 1013.95 1014.32 1014.76 1014.80 1014.67 1015.28 1015.08 1015.75 1015.50 1015.66 1016.25 1016.72 1016.99 1017.39 1017.90 1018.55 1019.24
999.75 999.22 998.97 998.40 998.12 998.06 998.70 998.23 997.65 998.19 998.92 999.89 1000.63 1002.23 1003.29 1003.92 1004.39 1004.94 1005.21 1005.69 1006.74 1007.83 1009.10 1010.04 1010.74 1011.64 1012.13 1012.28 1012.90 1013.00 1013.21 1013.60 1013.58 1013.94 1014.76 1014.87 1014.59 1015.20 1014.95 1015.23 1015.77 1016.15 1016.90 1017.41 1017.68 1017.86 1018.51 1019.11 1019.61
999.71 999.49 998.10 997.58 997.85 998.11 998.21 996.99 997.33 997.50 998.17 999.23 1000.10 1001.60 1002.64 1003.70 1004.10 1004.68 1005.13 1005.53 1006.37 1007.35 1008.68 1010.10 1010.58 1011.45 1012.11 1012.44 1012.90 1012.79 1013.12 1013.35 1013.51 1014.11 1014.70 1014.88 1014.84 1015.38 1015.45 1015.66 1016.10 1016.61 1017.07 1017.17 1017.59 1018.06 1018.61 1019.20 1019.69
998.97 997.49 997.20 996.82 996.91 997.60 997.52 996.75 996.35 996.61 997.03 998.01 999.17 1000.44 1001.91 1003.19 1004.00 1004.35 1004.99 1005.47 1006.14 1007.07 1008.38 1009.94 1010.57 1011.33 1011.92 1012.41 1012.67 1012.70 1013.23 1013.21 1013.32 1013.89 1014.40 1015.11 1015.23 1015.56 1015.47 1015.72 1016.40 1017.02 1016.93 1017.51 1018.26 1018.49 1018.80 1019.31 1019.83
996.76 996.93 995.97 995.63 995.74 996.61 996.65 996.56 996.42 995.70 995.59 997.06 998.13 999.73 1000.64 1001.97 1003.10 1004.09 1004.95 1005.49 1006.12 1006.87 1008.20 1009.70 1010.45 1011.13 1011.83 1012.18 1012.44 1012.64 1013.15 1013.17 1013.33 1013.81 1014.13 1015.14 1015.33 1015.73 1015.80 1016.01 1016.90 1016.90 1016.96 1017.57 1017.90 1018.41 1019.01 1019.50 1019.93
996.04 995.64 995.47 994.87 995.12 995.99 996.32 996.01 995.86 995.59 995.19 996.04 997.18 998.65 999.98 1000.82 1002.14 1003.54 1004.77 1005.40 1006.00 1006.71 1007.93 1009.08 1010.07 1010.90 1011.52 1011.81 1011.88 1012.19 1012.64 1012.92 1013.51 1013.76 1014.27 1015.23 1015.40 1015.95 1016.13 1016.34 1016.99 1017.04 1017.15 1017.56 1018.26 1018.83 1019.36 1019.87 1020.49
996.32 995.42 994.83 994.90 995.17 996.38 996.01 995.72 995.37 995.16 994.84 995.46 996.18 997.29 999.45 1000.39 1001.14 1002.53 1004.00 1004.86 1005.58 1006.34 1007.62 1008.58 1009.54 1010.55 1011.06 1011.23 1011.45 1011.73 1012.27 1012.81 1013.40 1013.67 1014.73 1015.20 1015.63 1016.06 1016.26 1016.41 1016.96 1017.25 1017.44 1018.14 1018.69 1019.15 1019.37 1019.88 1020.56
996.11 995.72 995.36 995.14 995.64 996.79 996.61 995.34 994.76 994.60 994.73 994.81 995.65 996.21 997.99 999.91 1001.02 1001.83 1003.14 1004.39 1005.35 1005.89 1007.10 1008.03 1008.80 1009.90 1010.63 1010.71 1011.20 1011.64 1012.25 1012.86 1013.42 1013.89 1014.88 1015.29 1015.88 1016.17 1016.41 1016.77 1016.96 1017.60 1017.84 1018.42 1018.91 1019.03 1019.31 1019.70 1020.35
995.79 996.11 995.91 995.64 995.94 995.71 996.54 994.71 994.09 994.18 994.03 994.06 995.12 995.82 996.60 998.54 1000.54 1001.72 1002.62 1003.73 1004.69 1005.45 1006.78 1007.66 1008.27 1009.24 1010.21 1010.55 1010.86 1011.43 1011.86 1012.49 1012.95 1013.77 1014.57 1015.20 1015.89 1016.20 1016.62 1016.96 1017.23 1017.73 1017.92 1018.16 1018.77 1018.99 1019.16 1019.39 1019.84
995.85 996.14 996.64 996.72 996.25 996.34 994.93 994.97 993.24 993.43 993.59 993.65 995.00 996.22 996.70 997.50 999.24 1000.91 1002.05 1003.17 1004.20 1005.30 1006.09 1007.19 1007.64 1008.28 1009.73 1010.20 1010.47 1011.06 1011.76 1012.17 1012.84 1013.56 1014.25 1015.15 1016.00 1016.30 1016.76 1017.12 1017.49 1017.76 1017.85 1018.06 1018.53 1018.88 1019.18 1019.37 1019.40
996.88 996.43 996.94 997.22 996.77 995.93 994.91 994.63 993.35 992.23 992.90 993.88 994.50 995.46 996.76 997.34 998.44 999.93 1001.37 1002.80 1003.84 1004.92 1006.02 1007.23 1007.11 1007.56 1009.08 1009.98 1010.30 1011.14 1011.58 1011.58 1011.90 1013.27 1014.12 1015.07 1015.84 1016.44 1016.82 1017.20 1017.57 1017.83 1017.90 1018.30 1018.58 1019.00 1019.31 1019.22 1019.42
996.36 996.40 996.44 996.26 995.60 994.15 994.62 994.59 993.92 994.41 994.49 994.90 995.14 995.08 996.24 997.61 998.33 999.33 1000.42 1001.99 1003.24 1004.30 1005.52 1006.55 1007.23 1008.10 1009.01 1009.73 1010.19 1011.08 1011.62 1011.49 1011.90 1012.90 1013.85 1014.68 1015.36 1016.18 1016.91 1017.28 1017.66 1017.92 1018.15 1018.47 1018.72 1019.16 1019.35 1019.48 1019.49
995.52 995.73 994.64 994.26 994.11 993.77 994.20 993.80 993.93 996.02 996.83 997.10 997.84 998.19 998.06 998.11 998.50 999.73 1000.93 1001.50 1002.96 1004.16 1005.25 1006.58 1007.38 1008.45 1009.90 1009.80 1009.89 1010.37 1011.47 1011.50 1011.94 1012.87 1013.68 1014.69 1015.36 1016.33 1017.07 1017.52 1017.82 1017.81 1018.29 1018.65 1019.07 1019.25 1019.40 1019.54 1019.77
995.32 995.25 994.50 994.16 993.91 993.64 993.25 995.06 996.56 997.42 998.03 998.52 999.61 1000.41 1000.85 1000.75 1000.61 1000.38 1001.41 1001.94 1002.48 1003.81 1004.85 1006.25 1007.14 1007.57 1008.72 1009.30 1009.84 1010.08 1011.11 1011.67 1012.04 1013.07 1014.02 1014.88 1016.04 1016.63 1017.09 1017.50 1018.07 1018.55 1018.24 1018.72 1019.36 1019.38 1019.51 1019.80 1020.07
995.13 995.68 995.41 994.28 993.77 993.04 992.57 993.63 994.86 997.69 998.77 999.82 1000.95 1001.76 1002.26 1002.38 1002.39 1002.58 1002.83 1003.11 1003.46 1003.71 1004.47 1006.22 1007.41 1008.12 1008.71 1009.14 1009.78 1010.29 1010.74 1011.72 1012.51 1013.85 1014.91 1015.33 1016.46 1016.76 1017.08 1017.38 1018.18 1019.07 1018.87 1019.33 1019.60 1019.71 1020.04 1020.13 1020.39
996.24 996.10 995.65 994.93 994.56 993.47 993.03 992.82 993.65 997.35 999.37 1000.82 1002.18 1002.97 1003.37 1003.55 1003.70 1003.76 1004.40 1003.65 1004.15 1004.62 1005.41 1006.27 1007.08 1008.11 1008.78 1009.37 1009.98 1010.56 1011.29 1011.96 1012.65 1013.45 1014.67 1015.81 1016.45 1017.09 1017.49 1018.02 1017.71 1018.59 1019.26 1019.31 1020.47 1019.95 1020.10 1020.51 1020.65
998.39 997.06 996.43 995.37 994.59 994.65 993.95 996.34 996.43 998.44 1000.65 1002.32 1003.60 1004.20 1004.62 1004.83 1005.12 1005.17 1005.58 1006.26 1006.61 1006.73 1006.76 1007.19 1007.29 1008.18 1009.02 1009.39 1009.56 1011.11 1011.58 1012.12 1012.93 1013.97 1015.07 1015.66 1016.32 1017.00 1017.66 1018.14 1018.60 1019.32 1018.64 1019.24 1020.37 1020.47 1020.22 1020.77 1020.87
Thickness
5752 5757 5767 5767 5747 5774 5783 5807 5826 5810 5807 5815 5821 5806 5799 5790 5779 5749 5791 5788 5775 5757 5743 5734 5726 5720 5714 5709 5707 5707 5706 5705 5707 5706 5705 5703 5703 5703 5703 5702 5702 5702 5702 5702 5703 5706 5707 5707 5709
5762 5764 5763 5762 5750 5765 5789 5828 5809 5820 5812 5812 5806 5798 5792 5767 5782 5778 5776 5781 5772 5757 5744 5735 5726 5720 5713 5708 5706 5706 5705 5703 5704 5703 5703 5703 5703 5702 5702 5702 5701 5703 5702 5701 5704 5705 5704 5706 5708
5754 5762 5750 5757 5761 5766 5783 5784 5820 5813 5808 5804 5795 5804 5789 5765 5777 5778 5780 5777 5770 5757 5749 5733 5726 5720 5713 5707 5704 5704 5704 5703 5703 5703 5703 5703 5703 5703 5703 5702 5702 5702 5702 5701 5703 5704 5705 5704 5708
5749 5751 5753 5746 5760 5790 5804 5794 5806 5802 5803 5806 5802 5778 5775 5780 5778 5780 5778 5775 5766 5758 5750 5729 5725 5719 5714 5708 5705 5702 5703 5702 5702 5702 5702 5703 5702 5701 5701 5701 5700 5700 5700 5702 5703 5703 5703 5705 5708
5750 5751 5740 5752 5765 5790 5800 5801 5804 5797 5795 5797 5799 5772 5763 5773 5779 5775 5773 5770 5762 5756 5741 5728 5724 5719 5715 5710 5705 5702 5700 5701 5700 5701 5701 5701 5700 5698 5698 5698 5698 5700 5700 5699 5700 5701 5702 5705 5707
5733 5747 5733 5745 5772 5793 5795 5799 5798 5798 5794 5793 5786 5775 5759 5771 5770 5770 5770 5764 5760 5752 5740 5727 5722 5718 5715 5711 5706 5702 5699 5698 5698 5699 5699 5698 5696 5696 5696 5696 5696 5697 5698 5699 5699 5700 5702 5704 5705
5729 5739 5735 5754 5775 5790 5785 5796 5789 5792 5789 5786 5794 5772 5755 5762 5769 5769 5766 5759 5755 5749 5739 5730 5724 5718 5714 5711 5707 5702 5699 5697 5697 5698 5698 5697 5695 5695 5695 5695 5695 5695 5696 5697 5699 5700 5702 5703 5705
5736 5736 5738 5754 5764 5769 5789 5782 5791 5792 5787 5797 5794 5767 5747 5765 5769 5767 5759 5751 5749 5745 5736 5731 5726 5722 5718 5712 5708 5704 5700 5698 5697 5696 5697 5696 5695 5695 5696 5696 5695 5695 5696 5697 5698 5699 5700 5702 5703
5741 5720 5729 5747 5762 5768 5785 5771 5784 5796 5783 5781 5781 5783 5780 5772 5767 5761 5752 5748 5738 5739 5735 5732 5728 5725 5721 5716 5709 5707 5703 5701 5699 5698 5697 5697 5697 5697 5696 5697 5696 5696 5696 5697 5698 5699 5700 5703 5703
5721 5716 5735 5764 5780 5770 5781 5773 5769 5767 5774 5767 5770 5774 5772 5766 5760 5757 5750 5743 5734 5730 5734 5733 5730 5728 5724 5722 5714 5712 5709 5708 5709 5706 5704 5708 5703 5701 5702 5696 5695 5696 5697 5698 5699 5701 5703 5705 5711
5722 5716 5747 5758 5775 5767 5769 5765 5769 5762 5762 5770 5760 5762 5759 5757 5755 5756 5752 5748 5742 5735 5730 5734 5730 5728 5730 5727 5723 5719 5717 5717 5714 5710 5713 5712 5709 5705 5702 5697 5697 5697 5698 5702 5702 5704 5705 5711 5713
5710 5728 5738 5756 5766 5752 5752 5770 5759 5760 5768 5783 5773 5768 5756 5752 5755 5756 5755 5751 5747 5737 5733 5733 5733 5729 5732 5730 5729 5727 5724 5720 5717 5715 5715 5712 5712 5710 5712 5710 5709 5708 5709 5711 5711 5707 5704 5701 5699
5711 5723 5736 5745 5753 5748 5751 5752 5755 5756 5766 5776 5776 5768 5755 5752 5757 5757 5758 5755 5750 5739 5736 5734 5734 5729 5731 5731 5732 5729 5726 5723 5721 5715 5716 5716 5718 5716 5717 5715 5715 5717 5714 5713 5707 5701 5697 5695 5692
5719 5721 5725 5738 5739 5745 5734 5743 5753 5758 5764 5763 5766 5756 5754 5753 5755 5752 5754 5753 5748 5742 5736 5736 5732 5729 5729 5729 5728 5727 5725 5724 5721 5719 5717 5719 5721 5717 5719 5714 5717 5716 5712 5708 5705 5702 5698 5692 5686
5712 5705 5714 5724 5730 5731 5736 5725 5738 5761 5762 5755 5758 5751 5748 5749 5752 5750 5753 5752 5749 5744 5737 5734 5731 5728 5726 5727 5723 5724 5723 5721 5722 5719 5715 5716 5719 5716 5719 5717 5714 5711 5705 5701 5699 5697 5692 5686 5682
5693 5696 5694 5722 5722 5726 5726 5714 5742 5763 5756 5750 5752 5747 5747 5744 5748 5749 5751 5752 5751 5746 5737 5730 5731 5726 5723 5722 5720 5722 5721 5721 5721 5718 5714 5714 5716 5713 5714 5713 5710 5705 5702 5701 5698 5695 5690 5685 5680
5686 5688 5695 5709 5727 5718 5717 5716 5747 5763 5759 5752 5750 5749 5744 5740 5740 5744 5747 5749 5749 5746 5737 5727 5727 5723 5721 5720 5719 5720 5718 5719 5720 5717 5715 5711 5712 5710 5712 5711 5706 5702 5702 5698 5692 5691 5688 5682 5678
5687 5686 5706 5707 5724 5716 5712 5714 5735 5759 5766 5750 5751 5746 5746 5741 5740 5741 5738 5743 5745 5743 5736 5726 5724 5722 5719 5719 5719 5719 5716 5717 5717 5715 5714 5708 5708 5706 5707 5706 5700 5700 5700 5696 5693 5688 5684 5679 5675
5706 5704 5701 5722 5729 5710 5706 5712 5726 5746 5757 5749 5749 5744 5741 5744 5745 5741 5733 5735 5737 5738 5733 5727 5721 5720 5718 5718 5717 5716 5713 5715 5713 5712 5711 5705 5705 5702 5701 5700 5696 5695 5695 5692 5687 5681 5676 5670 5666
5689 5692 5702 5717 5719 5703 5706 5705 5724 5738 5745 5749 5749 5745 5736 5737 5742 5739 5733 5732 5732 5733 5729 5726 5722 5717 5717 5719 5719 5718 5715 5714 5712 5711 5704 5701 5699 5697 5696 5696 5692 5690 5689 5683 5678 5674 5671 5667 5661
5677 5678 5690 5697 5702 5696 5692 5697 5712 5731 5738 5749 5749 5753 5745 5733 5729 5734 5732 5728 5728 5729 5726 5724 5722 5716 5714 5717 5716 5715 5713 5710 5706 5703 5696 5695 5691 5691 5690 5688 5687 5683 5681 5676 5672 5672 5668 5662 5658
5659 5683 5687 5689 5680 5671 5689 5675 5704 5720 5725 5739 5738 5743 5745 5737 5728 5726 5727 5724 5724 5725 5719 5718 5719 5713 5709 5713 5712 5708 5704 5698 5701 5696 5693 5691 5686 5685 5682 5682 5681 5677 5676 5675 5670 5669 5666 5663 5656
5661 5678 5671 5672 5673 5671 5690 5674 5709 5721 5713 5728 5727 5728 5737 5739 5733 5726 5724 5724 5722 5718 5714 5712 5716 5713 5707 5706 5707 5704 5699 5698 5697 5694 5691 5685 5679 5678 5676 5676 5674 5672 5671 5670 5667 5664 5660 5658 5656
5661 5662 5655 5659 5660 5644 5679 5678 5696 5723 5719 5722 5730 5729 5726 5732 5734 5731 5725 5720 5717 5716 5711 5706 5712 5712 5703 5700 5700 5695 5691 5692 5695 5687 5682 5677 5674 5672 5669 5668 5667 5664 5664 5662 5660 5656 5653 5653 5651
5647 5640 5623 5626 5636 5648 5685 5675 5696 5697 5707 5712 5717 5733 5724 5724 5726 5726 5720 5714 5712 5711 5708 5702 5700 5696 5693 5693 5692 5688 5685 5687 5687 5679 5678 5675 5673 5667 5662 5660 5659 5657 5656 5654 5652 5648 5647 5645 5644
5637 5637 5637 5621 5636 5658 5685 5668 5692 5684 5687 5693 5689 5690 5698 5712 5717 5711 5709 5711 5706 5705 5701 5694 5684 5670 5671 5683 5686 5685 5677 5679 5677 5675 5673 5670 5666 5658 5651 5649 5649 5650 5648 5645 5641 5641 5640 5638 5635
5631 5628 5665 5661 5672 5664 5682 5665 5659 5664 5666 5671 5667 5664 5665 5680 5689 5696 5699 5701 5705 5699 5696 5689 5680 5679 5674 5678 5675 5678 5672 5671 5670 5665 5663 5659 5650 5647 5644 5641 5638 5635 5639 5636 5631 5631 5631 5629 5625
5636 5646 5630 5653 5631 5638 5676 5667 5659 5643 5648 5652 5648 5647 5649 5659 5666 5673 5678 5685 5689 5693 5691 5682 5673 5670 5669 5668 5669 5669 5668 5664 5661 5652 5644 5644 5637 5634 5634 5635 5628 5620 5624 5620 5619 5618 5616 5617 5615
5619 5613 5628 5648 5646 5645 5656 5674 5686 5646 5642 5636 5633 5634 5637 5641 5647 5654 5656 5672 5671 5674 5674 5674 5669 5663 5661 5661 5663 5659 5657 5656 5655 5650 5641 5630 5629 5625 5624 5624 5624 5615 5608 5609 5600 5606 5605 5603 5603
5598 5616 5626 5625 5631 5645 5663 5623 5652 5634 5628 5621 5615 5618 5621 5625 5629 5636 5637 5637 5639 5644 5654 5656 5660 5654 5651 5651 5656 5645 5647 5647 5644 5638 5630 5625 5623 5619 5616 5613 5608 5600 5607 5601 5590 5591 5594 5589 5592